Stündliche Wetter Holovky

Heute, 15 Juni, Dienstag

Zeit Temperatur Niederschläge Wind Luftdruck Luftfeuchtigkeit
00:00 +16°C° 0 mm 2 m/S 745 mmHg 92%
01:00 +15°C° 0 mm 2 m/S 745 mmHg 93%
02:00 +15°C° 0 mm 2 m/S 745 mmHg 94%
03:00 +15°C° 0 mm 2 m/S 745 mmHg 94%
04:00 +15°C° 0 mm 2 m/S 745 mmHg 94%
05:00 +15°C° 0 mm 2 m/S 745 mmHg 95%
06:00 +17°C° 0 mm 3 m/S 745 mmHg 90%
07:00 +18°C° 0 mm 3 m/S 746 mmHg 86%
08:00 +20°C° 0 mm 3 m/S 746 mmHg 82%
09:00 +21°C° 0 mm 3 m/S 746 mmHg 75%
10:00 +24°C° 0 mm 3 m/S 745 mmHg 69%
11:00 +25°C° 0 mm 3 m/S 745 mmHg 63%
12:00 +26°C° 0.1 mm 3 m/S 745 mmHg 60%
13:00 +26°C° 0.1 mm 3 m/S 744 mmHg 58%
14:00 +27°C° 0.1 mm 4 m/S 744 mmHg 56%
15:00 +25°C° 0.1 mm 3 m/S 744 mmHg 62%
16:00 +24°C° 0.1 mm 3 m/S 744 mmHg 67%
17:00 +22°C° 0.1 mm 3 m/S 744 mmHg 73%
18:00 +21°C° 0 mm 3 m/S 744 mmHg 77%
19:00 +20°C° 0 mm 3 m/S 743 mmHg 81%
20:00 +19°C° 0 mm 3 m/S 743 mmHg 84%
21:00 +18°C° 0 mm 3 m/S 744 mmHg 86%
22:00 +17°C° 0 mm 3 m/S 744 mmHg 88%
23:00 +16°C° 0 mm 3 m/S 744 mmHg 90%

Morgen, 16 Juni, Mittwoch

Zeit Temperatur Niederschläge Wind Luftdruck Luftfeuchtigkeit
00:00 +16°C° 0 mm 3 m/S 744 mmHg 91%
01:00 +14°C° 0 mm 3 m/S 744 mmHg 92%
02:00 +14°C° 0 mm 3 m/S 744 mmHg 93%
03:00 +14°C° 0 mm 3 m/S 744 mmHg 92%
04:00 +14°C° 0 mm 3 m/S 744 mmHg 91%
05:00 +14°C° 0 mm 3 m/S 744 mmHg 91%
06:00 +16°C° 0 mm 3 m/S 744 mmHg 84%
07:00 +18°C° 0 mm 4 m/S 745 mmHg 78%
08:00 +20°C° 0 mm 4 m/S 745 mmHg 71%
09:00 +21°C° 0 mm 4 m/S 745 mmHg 67%
10:00 +22°C° 0 mm 4 m/S 745 mmHg 62%
11:00 +25°C° 0 mm 5 m/S 745 mmHg 57%
12:00 +25°C° 0 mm 5 m/S 745 mmHg 56%
13:00 +26°C° 0 mm 5 m/S 745 mmHg 54%
14:00 +26°C° 0 mm 5 m/S 745 mmHg 52%
15:00 +26°C° 0 mm 5 m/S 745 mmHg 55%
16:00 +26°C° 0 mm 4 m/S 745 mmHg 58%
17:00 +26°C° 0 mm 4 m/S 745 mmHg 62%
18:00 +23°C° 0 mm 4 m/S 745 mmHg 69%
19:00 +21°C° 0 mm 3 m/S 746 mmHg 75%
20:00 +20°C° 0 mm 3 m/S 746 mmHg 82%
21:00 +19°C° 0 mm 3 m/S 746 mmHg 86%
22:00 +18°C° 0 mm 3 m/S 747 mmHg 90%
23:00 +17°C° 0 mm 3 m/S 747 mmHg 93%

übermorgen, 17 Juni, Donnerstag

Zeit Temperatur Niederschläge Wind Luftdruck Luftfeuchtigkeit
00:00 +17°C° 0 mm 3 m/S 747 mmHg 94%
01:00 +16°C° 0 mm 3 m/S 747 mmHg 95%
02:00 +16°C° 0 mm 3 m/S 747 mmHg 95%
03:00 +16°C° 0 mm 3 m/S 748 mmHg 95%
04:00 +16°C° 0 mm 3 m/S 748 mmHg 95%
05:00 +16°C° 0 mm 3 m/S 748 mmHg 95%
06:00 +18°C° 0 mm 3 m/S 748 mmHg 89%
07:00 +20°C° 0 mm 4 m/S 749 mmHg 82%
08:00 +21°C° 0 mm 4 m/S 749 mmHg 75%
09:00 +23°C° 0 mm 4 m/S 749 mmHg 70%
10:00 +25°C° 0 mm 4 m/S 749 mmHg 64%
11:00 +27°C° 0 mm 5 m/S 750 mmHg 58%
12:00 +27°C° 0 mm 5 m/S 749 mmHg 57%
13:00 +28°C° 0 mm 5 m/S 749 mmHg 55%
14:00 +28°C° 0 mm 5 m/S 749 mmHg 54%
15:00 +27°C° 0 mm 5 m/S 749 mmHg 58%
16:00 +27°C° 0 mm 5 m/S 749 mmHg 62%
17:00 +26°C° 0 mm 4 m/S 749 mmHg 65%
18:00 +25°C° 0 mm 4 m/S 750 mmHg 69%
19:00 +22°C° 0 mm 4 m/S 750 mmHg 73%
20:00 +21°C° 0 mm 3 m/S 750 mmHg 78%
21:00 +19°C° 0 mm 3 m/S 750 mmHg 82%
22:00 +18°C° 0 mm 3 m/S 751 mmHg 86%
23:00 +17°C° 0 mm 3 m/S 751 mmHg 90%

18 Juni, Freitag

Zeit Temperatur Niederschläge Wind Luftdruck Luftfeuchtigkeit
00:00 +16°C° 0 mm 3 m/S 751 mmHg 91%
01:00 +16°C° 0 mm 3 m/S 751 mmHg 93%
02:00 +14°C° 0 mm 3 m/S 751 mmHg 94%
03:00 +14°C° 0 mm 3 m/S 751 mmHg 94%
04:00 +14°C° 0 mm 3 m/S 751 mmHg 94%
05:00 +13°C° 0 mm 3 m/S 751 mmHg 93%
06:00 +16°C° 0 mm 3 m/S 752 mmHg 87%
07:00 +18°C° 0 mm 4 m/S 752 mmHg 81%
08:00 +20°C° 0 mm 4 m/S 752 mmHg 74%
09:00 +21°C° 0 mm 4 m/S 752 mmHg 69%
10:00 +23°C° 0 mm 4 m/S 752 mmHg 63%
11:00 +25°C° 0 mm 5 m/S 752 mmHg 57%
12:00 +26°C° 0 mm 5 m/S 752 mmHg 55%
13:00 +26°C° 0 mm 5 m/S 752 mmHg 52%
14:00 +26°C° 0 mm 5 m/S 751 mmHg 49%
15:00 +26°C° 0 mm 5 m/S 751 mmHg 53%
16:00 +26°C° 0 mm 5 m/S 751 mmHg 57%
17:00 +25°C° 0 mm 4 m/S 751 mmHg 60%
18:00 +23°C° 0 mm 4 m/S 751 mmHg 67%
19:00 +21°C° 0 mm 4 m/S 751 mmHg 75%
20:00 +19°C° 0 mm 3 m/S 751 mmHg 82%
21:00 +18°C° 0 mm 3 m/S 751 mmHg 85%
22:00 +17°C° 0 mm 3 m/S 752 mmHg 89%
23:00 +16°C° 0 mm 3 m/S 752 mmHg 92%

19 Juni, Samstag

Zeit Temperatur Niederschläge Wind Luftdruck Luftfeuchtigkeit
00:00 +16°C° 0 mm 3 m/S 752 mmHg 93%
01:00 +16°C° 0 mm 3 m/S 752 mmHg 94%
02:00 +14°C° 0 mm 3 m/S 752 mmHg 95%
03:00 +16°C° 0 mm 2 m/S 752 mmHg 94%
04:00 +16°C° 0 mm 2 m/S 752 mmHg 94%
05:00 +16°C° 0 mm 2 m/S 752 mmHg 94%
06:00 +17°C° 0 mm 3 m/S 752 mmHg 87%
07:00 +19°C° 0 mm 3 m/S 752 mmHg 80%
08:00 +21°C° 0 mm 4 m/S 753 mmHg 73%
09:00 +22°C° 0 mm 4 m/S 752 mmHg 69%
10:00 +23°C° 0 mm 4 m/S 752 mmHg 65%
11:00 +25°C° 0 mm 4 m/S 752 mmHg 60%
12:00 +26°C° 0 mm 3 m/S 752 mmHg 57%
13:00 +27°C° 0 mm 3 m/S 752 mmHg 54%
14:00 +27°C° 0 mm 3 m/S 751 mmHg 50%
15:00 +27°C° 0 mm 3 m/S 751 mmHg 53%
16:00 +27°C° 0 mm 3 m/S 751 mmHg 56%
17:00 +26°C° 0 mm 3 m/S 751 mmHg 59%
18:00 +25°C° 0 mm 3 m/S 751 mmHg 64%
19:00 +24°C° 0 mm 3 m/S 751 mmHg 70%
20:00 +21°C° 0 mm 3 m/S 751 mmHg 75%
21:00 +21°C° 0 mm 2 m/S 751 mmHg 75%
22:00 +20°C° 0 mm 2 m/S 751 mmHg 75%
23:00 +20°C° 0 mm 2 m/S 751 mmHg 76%

20 Juni, Sonntag

Zeit Temperatur Niederschläge Wind Luftdruck Luftfeuchtigkeit
00:00 +19°C° 0 mm 2 m/S 751 mmHg 76%
01:00 +19°C° 0 mm 2 m/S 751 mmHg 76%
02:00 +19°C° 0 mm 2 m/S 751 mmHg 77%
03:00 +19°C° 0 mm 2 m/S 751 mmHg 78%
04:00 +19°C° 0 mm 2 m/S 751 mmHg 79%
05:00 +19°C° 0 mm 2 m/S 751 mmHg 80%
06:00 +20°C° 0 mm 2 m/S 751 mmHg 79%
07:00 +20°C° 0 mm 2 m/S 751 mmHg 78%
08:00 +21°C° 0 mm 2 m/S 751 mmHg 77%
09:00 +23°C° 0 mm 2 m/S 751 mmHg 70%
10:00 +25°C° 0 mm 3 m/S 751 mmHg 62%
11:00 +26°C° 0 mm 3 m/S 751 mmHg 55%
12:00 +26°C° 0 mm 3 m/S 751 mmHg 54%
13:00 +27°C° 0 mm 3 m/S 750 mmHg 53%
14:00 +27°C° 0 mm 2 m/S 750 mmHg 53%
15:00 +27°C° 0 mm 2 m/S 750 mmHg 54%
16:00 +27°C° 0 mm 2 m/S 750 mmHg 56%
17:00 +27°C° 0 mm 2 m/S 750 mmHg 57%
18:00 +25°C° 0 mm 2 m/S 750 mmHg 63%
19:00 +24°C° 0 mm 2 m/S 750 mmHg 69%
20:00 +21°C° 0 mm 2 m/S 750 mmHg 74%
21:00 +21°C° 0 mm 2 m/S 750 mmHg 77%
22:00 +20°C° 0 mm 2 m/S 750 mmHg 79%
23:00 +19°C° 0 mm 2 m/S 750 mmHg 82%
Mehr zeigen

Wir brauchen deine Erlaubnis

Meteoprog und unser Service Anbieter werden persönliche Daten aufbewahren, so wie Cookies, Geräte Bezeichnung oder ähnliche Technologien von deinem Gerät und Prozess, so wie Persönliche Daten Inhalte und Werbungen, genauso wie social Media und den Verkehr zu analysieren.

  • Aufbewahrung und/oder Zugang zu deiner Geräte Informationen.

    Cookies, Geräte Bezeichnung oder andere Informationen, können aufbewahrt oder Zugang zu deinem Gerät erhalten, für den Grund, der oben angegeben wird.

  • Personalisierte Werbung und Inhalte, Messungen, Einblick in das Publikum und Produkt Entwicklung.

    Werbungen und Inhalte können personalisiert werden, basierend auf ein Profil. Mehr Daten können besser personalisierte Werbungen und Inhalte hinzufügen. Werbung und Inhalte können gezeigt und gemessen werden. Einblicke über das Publikum, welche die Werbung gesehen haben und den Inhalt, können abgeleitet werden. So wie Daten können genutzt werden, um es zu verbessern oder die Benutzer Erfahrung zu verbessern das System und die Software.

Wenn du “Ich stimme zu” klickst, erlaubst du uns, die Cookies zu benutzen die Geräte Bezeichnung, den Web oder ähnliche Technologien zu benutzen. Deine Settings, können in deinem Gerät bei deinem Browser geändert werden.

Für den bestimmten Zweck, berechtigten Interessen beruhen darauf, mehr als auf den Inhalt. Du kannst mehr darüber in unseren Privaten und Cookie Politik lesen.